Midland, MI

9:32 PM EST on February 25, 2017 (GMT -0500)
Barstow

Weather History for KIKW - October, 2013

Change the Weather History Date:

Sunday, October 6, 2013

  Actual Average (KMBS) Record (KMBS)
Temperature  
Mean Temperature 62 °F -  
Max Temperature 71 °F 63 °F 89 °F (2007)
Min Temperature 52 °F 40 °F 27 °F (2003)
Degree Days  
Heating Degree Days 3    
Growing Degree Days 12 (Base 50)    
Moisture  
Dew Point 63 °F    
Average Humidity 95    
Maximum Humidity 99    
Minimum Humidity 76    
Precipitation  
Precipitation 0.34 in - - ()
Sea Level Pressure  
Sea Level Pressure 29.72 in    
Wind  
Wind Speed 6 mph (SSW)    
Max Wind Speed 12 mph    
Max Gust Speed 18 mph    
Visibility 8 miles    
Events Rain    
Averages and records for this station are not official NWS values.
T = Trace of Precipitation, MM = Missing Value Source: NWS Daily Summary

Daily Weather History Graph

Daily Weather History Graph

Search for Another Location

Airport or City:

Trip Planner

Search our weather history database for the weather conditions in past years. The results will help you decide how hot, cold, wet, or windy it might be!

Date:

Astronomy

Oct. 06, 2013 Rise Set
Actual Time 7:40 AM EDT 7:08 PM EDT
Civil Twilight 7:12 AM EDT 7:37 PM EDT
Nautical Twilight 6:38 AM EDT 8:10 PM EDT
Astronomical Twilight 6:05 AM EDT 8:43 PM EDT
Moon 9:28 AM EDT (10/6) 8:02 PM EDT (10/6)
Length of Visible Light 12h 25m
Length of Day
11h 27m
Waxing Crescent, 3% of the Moon is Illuminated
Oct 6
Waxing Crescent
Oct 11
First Quarter
Oct 18
Full
Oct 26
Last Quarter
Nov 3
New

Hourly Weather History & Observations

Time (EDT) Temp. Dew Point Humidity Pressure Visibility Wind Dir Wind Speed Gust Speed Precip Events Conditions
12:13 AM 68.4 °F 67.6 °F 98% 29.82 in 4.0 mi ESE 3.5 mph - N/A Rain Heavy Rain
12:34 AM 68.4 °F 67.6 °F 98% 29.82 in 5.0 mi SE 6.9 mph - 0.01 in   Overcast
12:53 AM 68.4 °F 67.5 °F 97% 29.81 in 7.0 mi SE 6.9 mph - 0.02 in   Overcast
1:13 AM 68.4 °F 67.3 °F 96% 29.81 in 7.0 mi SSE 6.9 mph - 0.01 in   Overcast
1:34 AM 68.4 °F 67.6 °F 98% 29.81 in 5.0 mi SSE 5.8 mph - 0.02 in   Overcast
1:53 AM 68.4 °F 67.5 °F 97% 29.81 in 7.0 mi SSE 4.6 mph - 0.03 in   Overcast
2:13 AM 68.4 °F 67.6 °F 98% 29.80 in 5.0 mi SSE 8.1 mph - 0.01 in   Overcast
2:34 AM 68.5 °F 67.8 °F 98% 29.79 in 5.0 mi SSE 5.8 mph - 0.01 in   Overcast
2:53 AM 68.4 °F 67.8 °F 98% 29.78 in 4.0 mi SE 5.8 mph - 0.02 in   Overcast
3:13 AM 68.4 °F 68.0 °F 99% 29.78 in 3.0 mi SE 10.4 mph - N/A Rain Heavy Rain
3:33 AM 68.4 °F 68.0 °F 99% 29.77 in 5.0 mi South 5.8 mph - 0.01 in Rain Light Rain
3:53 AM 68.4 °F 68.0 °F 99% 29.77 in 5.0 mi WSW 4.6 mph - 0.02 in   Overcast
4:13 AM 68.4 °F 68.0 °F 99% 29.76 in 7.0 mi SSE 3.5 mph - N/A   Mostly Cloudy
4:33 AM 67.8 °F 67.3 °F 98% 29.76 in 7.0 mi South 5.8 mph - 0.01 in   Scattered Clouds
4:53 AM 68.2 °F 67.6 °F 98% 29.76 in 7.0 mi South 5.8 mph - 0.02 in   Mostly Cloudy
5:14 AM 68.0 °F 67.3 °F 98% 29.76 in 7.0 mi South 4.6 mph - 0.01 in   Overcast
5:33 AM 68.0 °F 67.1 °F 97% 29.76 in 7.0 mi South 3.5 mph - 0.02 in   Overcast
5:53 AM 67.6 °F 67.1 °F 98% 29.75 in 7.0 mi Calm Calm - 0.02 in   Overcast
6:14 AM 67.8 °F 67.1 °F 98% 29.75 in 7.0 mi SSE 3.5 mph - 0.01 in   Overcast
6:33 AM 67.6 °F 67.1 °F 98% 29.75 in 7.0 mi Calm Calm - 0.02 in   Overcast
6:53 AM 67.6 °F 67.1 °F 98% 29.76 in 5.0 mi Calm Calm - 0.02 in   Overcast
7:13 AM 67.5 °F 67.1 °F 99% 29.75 in 4.0 mi South 3.5 mph - 0.01 in Rain Rain
7:33 AM 68.4 °F 68.0 °F 99% 29.75 in 5.0 mi SSW 4.6 mph - 0.02 in Rain Light Rain
7:54 AM 68.4 °F 68.0 °F 99% 29.74 in 7.0 mi South 4.6 mph - 0.02 in   Overcast
8:13 AM 68.4 °F 68.0 °F 99% 29.75 in 5.0 mi South 4.6 mph - 0.01 in   Overcast
8:33 AM 68.4 °F 67.6 °F 98% 29.75 in 5.0 mi South 3.5 mph - 0.01 in   Overcast
8:54 AM 68.4 °F 67.5 °F 97% 29.74 in 5.0 mi South 4.6 mph - 0.02 in   Overcast
9:13 AM 68.4 °F 67.5 °F 97% 29.74 in 7.0 mi South 3.5 mph - N/A   Mostly Cloudy
9:33 AM 68.4 °F 67.3 °F 96% 29.72 in 7.0 mi South 5.8 mph - 0.01 in   Mostly Cloudy
9:54 AM 68.4 °F 67.1 °F 96% 29.72 in 7.0 mi South 6.9 mph - 0.02 in   Scattered Clouds
10:13 AM 68.5 °F 66.7 °F 94% 29.72 in 7.0 mi South 6.9 mph - N/A   Overcast
10:33 AM 68.9 °F 66.7 °F 93% 29.72 in 7.0 mi SSE 4.6 mph - 0.01 in   Overcast
10:53 AM 69.1 °F 66.9 °F 93% 29.71 in 10.0 mi SSE 4.6 mph - 0.02 in   Overcast
11:13 AM 70.0 °F 67.3 °F 91% 29.71 in 7.0 mi SSE 6.9 mph - N/A   Overcast
11:34 AM 70.2 °F 67.1 °F 90% 29.70 in 10.0 mi SSE 5.8 mph - 0.01 in   Overcast
11:53 AM 70.7 °F 66.9 °F 88% 29.70 in 7.0 mi South 8.1 mph - 0.01 in   Mostly Cloudy
12:13 PM 70.2 °F 66.2 °F 87% 29.70 in 5.0 mi South 5.8 mph - N/A   Overcast
12:34 PM 70.7 °F 66.2 °F 86% 29.70 in 10.0 mi SSE 5.8 mph - N/A   Overcast
12:53 PM 71.1 °F 66.0 °F 84% 29.69 in 10.0 mi South 9.2 mph - 0.01 in   Overcast
1:13 PM 71.8 °F 65.1 °F 79% 29.68 in 10.0 mi SSE 8.1 mph - 0.01 in   Mostly Cloudy
1:34 PM 71.4 °F 63.3 °F 76% 29.67 in 10.0 mi South 9.2 mph 17.3 mph 0.01 in   Overcast
1:53 PM 70.7 °F 63.1 °F 77% 29.67 in 10.0 mi South 9.2 mph - 0.02 in   Overcast
2:14 PM 70.0 °F 63.5 °F 80% 29.66 in 5.0 mi SSW 9.2 mph 17.3 mph N/A Rain Rain
2:34 PM 68.2 °F 66.0 °F 93% 29.66 in 7.0 mi SW 11.5 mph - 0.01 in Rain Light Rain
2:53 PM 64.9 °F 63.1 °F 94% 29.66 in 4.0 mi WSW 11.5 mph 18.4 mph 0.01 in Rain Light Rain
3:14 PM 63.7 °F 61.9 °F 94% 29.67 in 10.0 mi WSW 9.2 mph 16.1 mph 0.01 in   Drizzle
3:34 PM 61.7 °F 59.9 °F 94% 29.66 in 7.0 mi West 10.4 mph - 0.01 in   Light Drizzle
3:53 PM 61.7 °F 59.5 °F 93% 29.67 in 10.0 mi West 11.5 mph - 0.02 in   Light Drizzle
4:14 PM 61.3 °F 59.0 °F 92% 29.66 in 10.0 mi West 8.1 mph - N/A Rain Rain
4:34 PM 60.4 °F 58.3 °F 93% 29.67 in 10.0 mi West 10.4 mph - N/A   Overcast
4:53 PM 59.9 °F 57.6 °F 92% 29.66 in 10.0 mi West 4.6 mph - N/A   Overcast
5:14 PM 59.9 °F 57.9 °F 93% 29.66 in 10.0 mi WSW 4.6 mph - N/A   Overcast
5:34 PM 58.3 °F 56.1 °F 93% 29.67 in 10.0 mi WSW 6.9 mph - N/A Rain Light Rain
5:53 PM 57.4 °F 55.6 °F 94% 29.67 in 10.0 mi West 4.6 mph - 0.01 in Rain Rain
6:14 PM 57.2 °F 56.1 °F 96% 29.67 in 7.0 mi WSW 4.6 mph - N/A Rain Rain
6:33 PM 56.8 °F 55.9 °F 97% 29.67 in 7.0 mi WSW 4.6 mph - N/A Rain Rain
6:54 PM 56.8 °F 55.9 °F 97% 29.67 in 10.0 mi West 3.5 mph - N/A   Overcast
7:13 PM 56.8 °F 55.8 °F 96% 29.67 in 10.0 mi SW 3.5 mph - 0.01 in   Overcast
7:34 PM 56.8 °F 55.6 °F 96% 29.67 in 10.0 mi SW 5.8 mph - 0.01 in   Overcast
7:54 PM 56.7 °F 55.4 °F 96% 29.67 in 10.0 mi WSW 6.9 mph - 0.01 in   Overcast
8:13 PM 56.3 °F 55.0 °F 96% 29.68 in 10.0 mi WSW 5.8 mph - N/A   Overcast
8:34 PM 56.3 °F 54.9 °F 95% 29.67 in 10.0 mi WSW 6.9 mph - 0.01 in Rain Light Rain
8:54 PM 55.8 °F 54.7 °F 96% 29.68 in 10.0 mi WSW 4.6 mph - 0.01 in   Scattered Clouds
9:14 PM 55.4 °F 54.1 °F 96% 29.68 in 10.0 mi WSW 3.5 mph - N/A   Clear
9:34 PM 54.9 °F 54.0 °F 97% 29.68 in 10.0 mi SW 4.6 mph - N/A   Clear
9:53 PM 54.5 °F 53.8 °F 97% 29.69 in 10.0 mi SSW 4.6 mph - N/A   Clear
10:14 PM 54.5 °F 53.8 °F 97% 29.69 in 10.0 mi Calm Calm - N/A   Clear
10:34 PM 54.5 °F 53.8 °F 97% 29.68 in 10.0 mi SW 3.5 mph - N/A   Clear
10:53 PM 54.5 °F 54.0 °F 98% 29.67 in 10.0 mi WSW 3.5 mph - N/A   Clear
11:14 PM 53.6 °F 52.9 °F 97% 29.68 in 10.0 mi SW 4.6 mph - N/A   Clear
11:34 PM 53.1 °F 52.7 °F 99% 29.69 in 10.0 mi SSW 5.8 mph - 0.01 in   Clear
11:53 PM 52.7 °F 51.8 °F 97% 29.68 in 10.0 mi SW 4.6 mph - 0.01 in   Clear